[[{"header":{"parameterUnit":"m.s-1","parameterCategory":1,"la1":30.2991,"la2":30.254,"lo1":-89.0895,"lo2":-89.0444,"dy":0.0017,"dx":0.0017,"nx":28,"ny":28,"refTime":"2025-12-23T09:00:00:Z","depth":0,"parameterNumber":2,"parameterNumberName":"U-component_of_WINDS"},"data":[0,0,0,0,0,0,0,0,0,0,0,0,0,0,0,0,0,0,0,0,0,0,0,0,0,0,0,0,0,0,0,0,0,0,0,0,0,0,0,0,0,0,0,0,0,0,0,0,0,0,0,0,0,0,0,0,0,0,0.0279,0.0279,0,0.032,0.0321,0.0321,0.0365,0.0366,0.0366,0.0367,0.0409,0.0409,0.041,0,0,0,0,0,0,0,0,0,0,0,0,0,0.0236,0.0237,0.0279,0.0279,0.028,0.032,0.0321,0.0322,0.0365,0.0366,0.0366,0.0367,0.0409,0.0409,0.041,0,0,0,0,0,0,0,0,0,0,0,0,0,0.0264,0.0237,0.0279,0.0306,0.0309,0.032,0.0321,0.0322,0.0365,0.0366,0.0367,0.0368,0.0409,0.0409,0.041,0.0397,0,0,0.0413,0.0413,0,0,0,0,0,0,0,0,0.0262,0.0266,0.0302,0.0304,0.0308,0.0339,0.0322,0.0347,0.0365,0.0344,0.0367,0.0368,0.0385,0.0388,0.0393,0.0399,0.0401,0.0413,0.0413,0.0414,0.0414,0,0,0,0,0,0,0,0.026,0.0264,0.0295,0.0302,0.0306,0.0317,0.0322,0.0327,0.0359,0.0346,0.0349,0.0353,0.0387,0.0392,0.0395,0.0401,0.0413,0.0413,0.0414,0.0414,0.0399,0.0398,0,0,0,0,0,0,0.0254,0.0262,0.0294,0.0296,0.0287,0.0317,0.0322,0.0328,0.0359,0.0364,0.0352,0.0355,0.0391,0.0394,0.0396,0.0383,0.0414,0.0414,0.0415,0.04,0.0398,0.0397,0,0,0,0,0,0,0.0253,0.0257,0.0292,0.028,0.0286,0.0316,0.0322,0.0328,0.0334,0.0364,0.037,0.0353,0.0391,0.0395,0.0397,0.0385,0.0415,0.0416,0.0401,0.0399,0.0398,0.0356,0,0,0,0,0,0,0.0252,0.0256,0.0251,0.028,0.0286,0.0292,0.0322,0.0328,0.0335,0.0339,0.0366,0.0371,0.0392,0.0395,0.0397,0.0387,0.0416,0.0402,0.04,0.0398,0.0359,0.0353,0.0349,0,0,0,0,0,0.025,0.0238,0.0251,0.0255,0.0281,0.0291,0.0294,0.032,0.0334,0.033,0.0349,0.037,0.0386,0.0395,0.0398,0.0387,0.0403,0.0401,0.0399,0.0361,0.0354,0.0349,0,0,0,0,0,0,0.0207,0.0242,0.0257,0.0253,0.0269,0.0298,0.0293,0.0312,0.0324,0.0327,0.0358,0.0364,0.0361,0.0375,0.0384,0.0376,0.0397,0.0396,0.0368,0.0362,0.0357,0.0354,0.0417,0,0,0,0,0,0.0197,0.0202,0.0233,0.0226,0.0233,0.0262,0.0267,0.0286,0.0303,0.031,0.0329,0.0345,0.0354,0.0359,0.0368,0.0361,0.0367,0.0355,0.035,0.0346,0.0344,0.0342,0.0337,0.0391,0.0391,0.0391,0,0,0.0176,0.0196,0.0197,0.0218,0.0232,0.0237,0.0267,0.0271,0.0275,0.031,0.0313,0.0328,0.0347,0.0344,0.0344,0.0355,0.0331,0.0344,0.034,0.0341,0.0339,0.0334,0.0329,0.0389,0.039,0.039,0,0,0.0141,0.0156,0.0153,0.0167,0.0188,0.0207,0.0206,0.0233,0.0244,0.0248,0.0274,0.028,0.0294,0.0307,0.0315,0.0286,0.0305,0.0288,0.0263,0.026,0.0255,0.0252,0.0241,0.0237,0.0286,0.0286,0.0286,0,0.0112,0.012,0.0149,0.0151,0.0159,0.0192,0.0189,0.0201,0.0224,0.0229,0.0242,0.0261,0.0276,0.0277,0.027,0.0276,0.0276,0.0285,0.0254,0.0251,0.0248,0.0238,0.0233,0.0284,0.0284,0.0284,0.0285,0,0.0084,0.009,0.0084,0.0106,0.0114,0.0114,0.0142,0.0146,0.0164,0.0182,0.0185,0.0205,0.022,0.0221,0.0239,0.0225,0.0231,0.0248,0.027,0.024,0.0231,0.0227,0.0281,0.0282,0.0282,0.0283,0,0,0.0021,0.006,0.0057,0.0068,0.0094,0.0099,0.01,0.0114,0.0118,0.0133,0.0135,0.0146,0.0163,0.0172,0.0192,0.0189,0.0164,0.0207,0.0208,0.0198,0.015,0.0136,0.0131,0.0178,0.0177,0.0177,0.0148,0,-0.001,-0.0006,0.002,0.0016,0.0022,0.0054,0.0055,0.0071,0.0088,0.0095,0.0114,0.0122,0.0143,0.0149,0.0148,0.0167,0.0155,0.017,0.0179,0.0179,0.0172,0.0126,0.0112,0.0084,0.0145,0.0144,0.0144,0,-0.0046,-0.0033,-0.0036,-0.0009,-0.0006,-0.0005,0.001,0.0017,0.0036,0.0049,0.006,0.0082,0.0085,0.0106,0.011,0.012,0.0126,0.0136,0.0135,0.0137,0.0159,0.0126,0.0075,0.0071,0.0139,0.0139,0.0139,0,-0.0092,-0.0075,-0.0074,-0.0066,-0.0035,-0.0035,-0.0022,-0.0002,0.0005,0.0019,0.0024,0.0038,0.0045,0.0055,0.008,0.0093,0.0082,0.0105,0.0092,0.0091,0.0088,0.0087,0.0036,0.0092,0.0092,0.0092,0.0092,0,-0.013,-0.0134,-0.0095,-0.0094,-0.0097,-0.0067,-0.007,-0.0054,-0.0036,-0.0032,-0.0003,-0.0,0.0033,0.004,0.006,0.006,0.0064,0.0074,0.0079,0.0071,0.0069,0.0074,0.0076,0.0091,0.0091,0.0092,0.0092,0,-0.0183,-0.0157,-0.0154,-0.0124,-0.0117,-0.012,-0.0094,-0.0093,-0.0073,-0.0069,-0.0066,-0.0036,-0.0027,-0.0,0.0016,0.003,0.0024,0.0034,0.0018,0.0021,0.0006,0.0007,-0.0044,-0.0049,0.001,0.001,0.0009,0,-0.0209,-0.0211,-0.0181,-0.0176,-0.0164,-0.0157,-0.0149,-0.0119,-0.0112,-0.009,-0.0091,-0.0079,-0.0068,-0.0054,-0.0031,-0.0018,-0.0008,-0.0027,-0.0006,-0.0014,-0.0009,-0.001,-0.001,-0.0032,-0.0033,-0.0033,-0.0034,0,-0.0259,-0.0246,-0.0236,-0.0221,-0.0213,-0.02,-0.0185,-0.0183,-0.0149,-0.0143,-0.0133,-0.0124,-0.0107,-0.0095,-0.0079,-0.0065,-0.0044,-0.004,-0.0043,-0.0051,-0.0061,-0.0056,0.0005,-0.0039,-0.0039,-0.0038,-0.0038,-0.0038,-0.03,-0.0299,-0.0278,-0.0268,-0.0253,-0.024,-0.0238,-0.0218,-0.0208,-0.0192,-0.0175,-0.0166,-0.0146,-0.0122,-0.011,-0.0103,-0.0092,-0.0095,-0.0096,-0.0097,-0.0101,-0.0062,-0.01,-0.0099,-0.0099,-0.0099,-0.0099,0,-0.0348,-0.0333,-0.0323,-0.0304,-0.0296,-0.0275,-0.0258,-0.0253,-0.0245,-0.0228,-0.0218,-0.0206,-0.0194,-0.017,-0.0156,-0.0155,-0.0145,-0.0153,-0.0153,-0.015,-0.0112,-0.0111,-0.0161,-0.0161,-0.0161,-0.0161,-0.0161,-0.0161,-0.0373,-0.0372,-0.0356,-0.0347,-0.0331,-0.0322,-0.0314,-0.0302,-0.0288,-0.0276,-0.0266,-0.025,-0.023,-0.0215,-0.0203,-0.0196,-0.0193,-0.0204,-0.0194,-0.0159,-0.0153,-0.0147,-0.0147,-0.0203,-0.0203,-0.0233,-0.0233,-0.0233]},{"header":{"parameterUnit":"m.s-1","parameterCategory":1,"la1":30.2991,"la2":30.254,"lo1":-89.0895,"lo2":-89.0444,"dy":0.0017,"dx":0.0017,"nx":28,"ny":28,"refTime":"2025-12-23T09:00:00:Z","depth":0,"parameterNumber":3,"parameterNumberName":"V-component_of_WINDS"},"data":[0,0,0,0,0,0,0,0,0,0,0,0,0,0,0,0,0,0,0,0,0,0,0,0,0,0,0,0,0,0,0,0,0,0,0,0,0,0,0,0,0,0,0,0,0,0,0,0,0,0,0,0,0,0,0,0,0,0,-0.2213,-0.2214,0,-0.2293,-0.2294,-0.2295,-0.2311,-0.231,-0.231,-0.2309,-0.239,-0.2392,-0.2395,0,0,0,0,0,0,0,0,0,0,0,0,0,-0.2076,-0.2078,-0.2213,-0.2214,-0.2215,-0.2293,-0.2294,-0.2295,-0.2311,-0.231,-0.231,-0.2309,-0.2389,-0.2392,-0.2395,0,0,0,0,0,0,0,0,0,0,0,0,0,-0.2143,-0.2079,-0.2213,-0.2233,-0.2235,-0.2292,-0.2294,-0.2295,-0.2311,-0.231,-0.2309,-0.2309,-0.2388,-0.2392,-0.2396,-0.2439,0,0,-0.2408,-0.241,0,0,0,0,0,0,0,0,-0.2139,-0.2148,-0.2229,-0.2232,-0.2234,-0.2291,-0.2275,-0.2343,-0.2311,-0.2282,-0.2309,-0.2308,-0.2358,-0.2364,-0.2381,-0.2443,-0.2446,-0.2409,-0.2411,-0.2413,-0.2414,0,0,0,0,0,0,0,-0.2135,-0.2145,-0.2245,-0.223,-0.2233,-0.2237,-0.2246,-0.2288,-0.2324,-0.2285,-0.2286,-0.2295,-0.2359,-0.2377,-0.2383,-0.2447,-0.2408,-0.2412,-0.2415,-0.2416,-0.2549,-0.255,0,0,0,0,0,0,-0.2127,-0.2141,-0.2242,-0.2247,-0.2184,-0.2241,-0.225,-0.2274,-0.2324,-0.233,-0.2296,-0.2296,-0.2371,-0.2378,-0.2386,-0.2441,-0.2413,-0.2417,-0.2419,-0.2548,-0.2549,-0.255,0,0,0,0,0,0,-0.2123,-0.2135,-0.2239,-0.2194,-0.2208,-0.2244,-0.227,-0.2276,-0.2294,-0.2332,-0.2339,-0.2308,-0.237,-0.238,-0.2426,-0.2444,-0.2418,-0.2422,-0.2547,-0.2548,-0.255,-0.2549,0,0,0,0,0,0,-0.2119,-0.2134,-0.2151,-0.2195,-0.221,-0.2278,-0.2271,-0.2278,-0.2301,-0.2301,-0.2345,-0.2351,-0.237,-0.242,-0.243,-0.2449,-0.2425,-0.2545,-0.2547,-0.2549,-0.2548,-0.2551,-0.2553,0,0,0,0,0,-0.2114,-0.2147,-0.2152,-0.2164,-0.2232,-0.2279,-0.2288,-0.2309,-0.2302,-0.232,-0.2344,-0.235,-0.2439,-0.2424,-0.2436,-0.2456,-0.2544,-0.2547,-0.2549,-0.2547,-0.255,-0.2553,0,0,0,0,0,0,-0.2105,-0.2154,-0.2159,-0.2207,-0.2239,-0.2281,-0.2304,-0.2312,-0.2346,-0.2345,-0.2369,-0.2379,-0.2423,-0.2444,-0.2426,-0.2501,-0.2491,-0.2496,-0.2486,-0.2489,-0.2492,-0.2487,-0.2429,0,0,0,0,0,-0.2108,-0.2142,-0.2183,-0.2221,-0.2237,-0.2268,-0.2289,-0.2302,-0.2336,-0.2349,-0.2377,-0.241,-0.2445,-0.2468,-0.2503,-0.255,-0.2561,-0.257,-0.2573,-0.2575,-0.2579,-0.2607,-0.2612,-0.2558,-0.2558,-0.2558,0,0,-0.2116,-0.2147,-0.2166,-0.222,-0.2246,-0.2281,-0.2279,-0.2315,-0.2342,-0.2355,-0.24,-0.2422,-0.2459,-0.2506,-0.2529,-0.2525,-0.2596,-0.2578,-0.2579,-0.2583,-0.261,-0.2615,-0.2619,-0.256,-0.256,-0.256,0,0,-0.2148,-0.2174,-0.2209,-0.2236,-0.2275,-0.2296,-0.2304,-0.2346,-0.2361,-0.2406,-0.2417,-0.2448,-0.2509,-0.2536,-0.2557,-0.2599,-0.2606,-0.2609,-0.2624,-0.265,-0.2654,-0.2658,-0.2675,-0.268,-0.2613,-0.2613,-0.2613,0,-0.2152,-0.2205,-0.2227,-0.2263,-0.2287,-0.23,-0.2337,-0.2361,-0.241,-0.2426,-0.2421,-0.2498,-0.2524,-0.2578,-0.2588,-0.2605,-0.2616,-0.2605,-0.2652,-0.2656,-0.266,-0.2676,-0.2682,-0.2614,-0.2614,-0.2614,-0.2613,0,-0.2209,-0.2246,-0.227,-0.2317,-0.2343,-0.2379,-0.2406,-0.243,-0.2441,-0.2462,-0.2508,-0.254,-0.2582,-0.2595,-0.2606,-0.2651,-0.2648,-0.2647,-0.2639,-0.2665,-0.268,-0.2686,-0.2614,-0.2614,-0.2614,-0.2614,0,0,-0.2238,-0.2297,-0.2306,-0.2328,-0.2372,-0.2401,-0.2438,-0.2479,-0.2499,-0.2532,-0.2564,-0.2615,-0.2615,-0.2639,-0.2653,-0.2676,-0.2709,-0.2673,-0.2674,-0.268,-0.2761,-0.2763,-0.2769,-0.2713,-0.2714,-0.2715,-0.2759,0,-0.2277,-0.2344,-0.2364,-0.242,-0.2454,-0.2467,-0.25,-0.253,-0.255,-0.2582,-0.2604,-0.2641,-0.2637,-0.2652,-0.2675,-0.27,-0.2726,-0.2697,-0.2744,-0.2745,-0.2735,-0.2777,-0.2779,-0.2818,-0.2764,-0.2765,-0.2766,0,-0.2331,-0.2365,-0.2425,-0.2466,-0.2481,-0.251,-0.2549,-0.258,-0.2615,-0.2628,-0.2655,-0.2667,-0.2706,-0.2694,-0.2748,-0.2728,-0.2748,-0.2763,-0.2765,-0.2772,-0.2758,-0.2786,-0.2831,-0.2838,-0.2776,-0.2775,-0.2774,0,-0.2348,-0.2409,-0.2453,-0.2471,-0.2519,-0.2539,-0.256,-0.2595,-0.2618,-0.2653,-0.2668,-0.2706,-0.2728,-0.2757,-0.2779,-0.2768,-0.2832,-0.2822,-0.2844,-0.2844,-0.2858,-0.2858,-0.2909,-0.2869,-0.2869,-0.2868,-0.2868,0,-0.239,-0.2426,-0.2461,-0.2489,-0.253,-0.2552,-0.2592,-0.2614,-0.2644,-0.2676,-0.2688,-0.2718,-0.2744,-0.2777,-0.2794,-0.2838,-0.2847,-0.2859,-0.2863,-0.2858,-0.2857,-0.2873,-0.2872,-0.287,-0.287,-0.2869,-0.2869,0,-0.2416,-0.2441,-0.249,-0.2532,-0.2543,-0.2572,-0.2608,-0.2635,-0.2655,-0.2695,-0.2705,-0.2737,-0.2776,-0.2801,-0.285,-0.2862,-0.291,-0.2912,-0.2898,-0.2901,-0.2923,-0.2921,-0.2988,-0.2998,-0.2949,-0.2949,-0.295,0,-0.2442,-0.2471,-0.2516,-0.2538,-0.2559,-0.2595,-0.2619,-0.2642,-0.2667,-0.2709,-0.2731,-0.2771,-0.2805,-0.2867,-0.2894,-0.2932,-0.2937,-0.2958,-0.2943,-0.2938,-0.2939,-0.2938,-0.2941,-0.2961,-0.2961,-0.2962,-0.2962,0,-0.2486,-0.2497,-0.2532,-0.2571,-0.26,-0.2632,-0.2663,-0.2681,-0.2709,-0.2736,-0.2777,-0.2803,-0.2854,-0.2894,-0.2935,-0.2956,-0.2964,-0.2966,-0.2974,-0.297,-0.2961,-0.2968,-0.2907,-0.2965,-0.2965,-0.2964,-0.2964,-0.2964,-0.2514,-0.2541,-0.2576,-0.2615,-0.2641,-0.2671,-0.2698,-0.2722,-0.2756,-0.28,-0.2811,-0.2854,-0.2888,-0.2944,-0.2966,-0.3,-0.2997,-0.3007,-0.301,-0.3013,-0.3014,-0.2954,-0.3007,-0.3007,-0.3007,-0.3007,-0.3007,0,-0.256,-0.2584,-0.2619,-0.2663,-0.2693,-0.2698,-0.2733,-0.2758,-0.2796,-0.2827,-0.286,-0.2907,-0.2946,-0.2976,-0.3016,-0.3037,-0.3042,-0.3047,-0.3047,-0.3052,-0.3014,-0.3004,-0.3043,-0.3043,-0.3043,-0.3043,-0.3043,-0.3043,-0.2588,-0.2633,-0.2648,-0.2706,-0.2729,-0.2772,-0.2792,-0.2819,-0.2844,-0.2896,-0.2929,-0.2948,-0.2979,-0.3022,-0.3058,-0.3065,-0.308,-0.3085,-0.3094,-0.3058,-0.3054,-0.3051,-0.3042,-0.3087,-0.3088,-0.3129,-0.3129,-0.313]}]]